Location: Salillas
(41.9950°N, 0.2228°W)
Time: 21:26:27
(UTC+00:00)

Meteor 2-21 Rocket - Pass Details

Date: 29 March 2020
Orbit: 936 x 967 km, 82.6° (Epoch: 31 May)

Event Time Altitude Azimuth Distance (km) Brightness Sun altitude
Rises 18:47:25 0° 353° (N) 3,605 7.7 -5.2°
Reaches altitude 10° 18:49:55 10° 355° (N) 2,657 7.0 -5.7°
Maximum altitude 18:56:00 78° 81° (E) 964 4.4 -6.8°
Drops below altitude 10° 19:02:03 10° 168° (SSE) 2,649 6.5 -7.9°
Sets 19:04:32 0° 170° (S) 3,593 7.2 -8.3°
